DMSP 5D-2 F11 DEB, 28312

Orbit data source: Space-Track

DMSP 5D-2 F11 DEB, 28312 is space debris in SSO originally from a launch on Thu, 28 Nov 1991 UTC launched from the Air Force Western Test Range (AFWTR). Debris objects in space refer to the collection of defunct objects orbiting the Earth. Examples of debris include non-operational satellites, rocket bodies, and fragments generated from explosions, collisions, or faulty payload assembly.

Loading next visibility...
Identifier
28312, 1991-082Z
Orbit
SSO
Country
Flag of USUS
Related business
Manufacturer
Unknown
Mission
Spacecraft
Bus & Motor
Unknown
Mass
Unknown
Launch date (UTC)
1991-11-28 (35 years ago)
Launch vehicle
Unknown
Launch site
Air Force Western Test Range (AFWTR)
Object type
Payload
Rocket body
Debris
Shape & HBR
Unknown shape, 0.1 m
Radar Cross Section
Small (<0.1 m²)

Expand to show TLE details & history
Last TLE update: 1 day ago

TLE from 1 day ago
0 DMSP 5D-2 F11 DEB
1 28312U 91082Z   26208.04198110  .00000835  00000-0  36719-3 0  9993
2 28312  98.6031 240.3542 0010544   1.0148 359.1052 14.26114464152919
Epoch: 2026-07-27T01:00Z
TLE epoch observation values (Epoch: 2026-07-27T01:00:27.167Z)
Latitude
0.00002°
Longitude
-79.49024°
Altitude
800.1 km
Speed
7.457 km/s
True Right ascension
16h 01m 25s
True Declination
0° 00' 00"
Sunlit
Object was in daylight at epoch
Visualization orbit readout
Latitude
Unknown
Longitude
Unknown
Altitude
Unknown
Speed
Unknown
Apparent Right ascension
Unknown
Apparent Declination
Unknown
Sunlit
N/A
Visualization observer readout
Local Sidereal Time
17:12:54
Azimuth
Unknown
Elevation
Unknown
Doppler factor
Unknown
Orbital elements
Apogee altitude
809.464 km
Perigee altitude
794.323 km
Semi-major axis
7,180.03 km
Eccentricity
0.00105
Inclination
98.6031°
RAAN
240.3542°
Arg. of periapsis
1.0148°
True anomaly
359.10331°
Mean anomaly
359.1052°
Eccentric anomaly
359.10426°
Mean motion
3.56742 °/min
Orbital period
100.91 mins
BSTAR
0.00036719
Loading maneuver chart data...
Computing Atmospheric mass density...

Documentation

Showing up to 5 results
|